Fort Dodge, IA

4:33 AM CST on December 13, 2019 (GMT -0600)
Fort Dodge Regional

Weather History for KFOD - October, 2019

Change the Weather History Date:

Tuesday, October 22, 2019

  Actual Average Record
Temperature  
Mean Temperature 44 °F -  
Max Temperature 51 °F 61 °F 83 °F (1978)
Min Temperature 37 °F 38 °F 16 °F (1976)
Degree Days  
Heating Degree Days 21    
Moisture  
Dew Point 33 °F    
Average Humidity 69    
Maximum Humidity 89    
Minimum Humidity 41    
Precipitation  
Precipitation 0.02 in - - ()
Sea Level Pressure  
Sea Level Pressure 29.81 in    
Wind  
Wind Speed 16 mph ()    
Max Wind Speed 28 mph    
Max Gust Speed 40 mph    
Visibility 10.0 miles    
Events Rain    
Averages and records for this station are not official NWS values.
T = Trace of Precipitation, MM = Missing Value Source: Averaged Metar Reports

Daily Weather History Graph

Daily Weather History Graph

Search for Another Location

Airport or City:

Astronomy

Oct. 22, 2019 Rise Set
Actual Time 7:37 AM CDT 6:23 PM CDT
Civil Twilight 7:09 AM CDT 6:52 PM CDT
Nautical Twilight 6:36 AM CDT 7:25 PM CDT
Astronomical Twilight 6:03 AM CDT 7:57 PM CDT
Moon 12:37 AM CDT (10/22) 3:43 PM CDT (10/22)
Length of Visible Light 11h 43m
Length of Day
10h 46m
Last Quarter, 37% of the Moon is Illuminated
Oct 22
Last Quarter
Oct 27
New
Nov 4
First Quarter
Nov 12
Full
Nov 19
Last Quarter

Hourly Weather History & Observations

Time (CDT) Temp. Windchill Dew Point Humidity Pressure Visibility Wind Dir Wind Speed Gust Speed Precip Events Conditions
12:56 AM 44.1 °F 35.2 °F 41.0 °F 89% 29.56 in 10.0 mi WNW 23.0 mph 31.1 mph 0.00 in Rain Light Rain
1:56 AM 44.1 °F 35.7 °F 39.9 °F 85% 29.59 in 10.0 mi WNW 20.7 mph 32.2 mph 0.00 in Rain Light Rain
2:56 AM 44.1 °F 34.4 °F 39.0 °F 82% 29.61 in 10.0 mi West 27.6 mph 40.3 mph 0.00 in   Overcast
3:56 AM 43.0 °F 33.8 °F 37.9 °F 82% 29.65 in 10.0 mi West 23.0 mph 31.1 mph N/A   Overcast
4:56 AM 43.0 °F 34.2 °F 37.0 °F 80% 29.69 in 10.0 mi WNW 20.7 mph 31.1 mph N/A   Overcast
5:56 AM 42.1 °F 33.1 °F 36.0 °F 79% 29.72 in 10.0 mi WNW 20.7 mph 34.5 mph N/A   Overcast
6:56 AM 41.0 °F 32.5 °F 36.0 °F 82% 29.75 in 10.0 mi West 17.3 mph 29.9 mph N/A   Overcast
7:56 AM 39.9 °F 32.1 °F 35.1 °F 83% 29.77 in 10.0 mi West 13.8 mph 28.8 mph N/A   Overcast
8:56 AM 39.9 °F 31.8 °F 35.1 °F 83% 29.79 in 10.0 mi West 15.0 mph 24.2 mph N/A   Overcast
9:56 AM 41.0 °F 32.2 °F 34.0 °F 76% 29.82 in 10.0 mi West 18.4 mph 29.9 mph N/A   Overcast
10:56 AM 43.0 °F 34.2 °F 33.1 °F 68% 29.84 in 10.0 mi WNW 20.7 mph 31.1 mph N/A   Overcast
11:13 AM 44.6 °F 37.4 °F 33.8 °F 66% 29.74 in 10.0 mi WNW 16.1 mph 25.3 mph N/A   Mostly Cloudy
11:56 AM 46.0 °F 39.3 °F 32.0 °F 58% 29.85 in 10.0 mi WNW 16.1 mph 28.8 mph N/A   Clear
1:56 PM 50.0 °F - 28.9 °F 44% 29.85 in 10.0 mi WNW 18.4 mph 29.9 mph N/A   Clear
2:56 PM 50.0 °F - 28.9 °F 44% 29.86 in 10.0 mi West 18.4 mph 31.1 mph N/A   Partly Cloudy
3:56 PM 51.1 °F - 28.9 °F 43% 29.87 in 10.0 mi WNW 17.3 mph 32.2 mph N/A   Mostly Cloudy
4:56 PM 51.1 °F - 28.0 °F 41% 29.89 in 10.0 mi WNW 21.9 mph 35.7 mph N/A   Partly Cloudy
5:56 PM 48.9 °F - 28.9 °F 46% 29.91 in 10.0 mi West 16.1 mph 21.9 mph N/A   Clear
6:56 PM 46.0 °F 41.9 °F 30.0 °F 54% 29.92 in 10.0 mi West 8.1 mph - 0.01 in   Clear
7:56 PM 42.1 °F 37.7 °F 30.9 °F 65% 29.94 in 10.0 mi WSW 6.9 mph - N/A   Partly Cloudy
8:56 PM 41.0 °F 35.8 °F 32.0 °F 70% 29.93 in 10.0 mi WSW 8.1 mph - N/A   Partly Cloudy
9:56 PM 39.0 °F 34.0 °F 30.9 °F 73% 29.94 in 10.0 mi WSW 6.9 mph - N/A   Clear
10:56 PM 37.0 °F 33.3 °F 30.9 °F 79% 29.94 in 10.0 mi WSW 4.6 mph - 0.01 in   Clear
11:56 PM 37.0 °F 31.6 °F 30.9 °F 79% 29.93 in 10.0 mi SW 6.9 mph - N/A   Clear